Location: *
(28.3744°N, 81.5492°W)
Time: 04:04:41
(UTC+00:00)

Cosmos 1470 - Pass Details

Date: 15 June 2025
Orbit: 453 x 466 km, 82.5° (Epoch: 11 July)

Event Time Altitude Azimuth Distance (km) Brightness Sun altitude
Rises 01:01:26 0° 11° (N) 2,491 6.5 -7.8°
Reaches altitude 10° 01:03:51 10° 26° (NNE) 1,609 5.3 -8.3°
Maximum altitude 01:06:40 22° 80° (E) 1,041 3.8 -8.8°
Enters shadow 01:08:57 13° 128° (SE) 1,436 4.3 -9.2°
